IRIDIUM 33 DEB, 33850

Orbit data source: Space-Track

IRIDIUM 33 DEB, 33850 is space debris in LEO originally from a launch on Sun, 14 Sep 1997 UTC launched from the Tyuratam Missile And Space Complex (TTMTR). The debris from Iridium 33, an American commercial communications satellite, has been tracked extensively since its accidental collision with the defunct Russian satellite Cosmos 2251 in 2009. This event, occurring at high speed in low Earth orbit (LEO), generated thousands of pieces of space debris, significantly increasing the risk of further collisions. The Iridium 33 debris cloud has impacted space traffic management and orbital debris mitigation strategies, making it a subject of ongoing study in space situational awareness.

Loading next visibility...
Identifier
33850, 1997-051T
Orbit
LEO
Country
Flag of USUS
Related business
Manufacturer
Unknown
Mission
Spacecraft
Bus & Motor
Unknown
Mass
Unknown
Launch date (UTC)
1997-09-14 (28 years ago)
Launch vehicle
Unknown
Launch site
Tyuratam Missile And Space Complex (TTMTR)
Object type
Payload
Rocket body
Debris
Shape & HBR
Unknown shape, 0.5 m
Radar Cross Section
Medium (>0.1 m² and <1 m²)

Expand to show TLE details & history
Last TLE update: 18 hours ago

TLE from 18 hours ago
0 IRIDIUM 33 DEB
1 33850U 97051T   25354.85391360  .00000870  00000-0  25830-3 0  9991
2 33850  86.3409  26.6904 0013008 136.6945  36.4511 14.42163451882698
Epoch: 2025-12-20T20:29Z
TLE epoch observation values (Epoch: 2025-12-20T20:29:38.135Z)
Latitude
6.6739°
Longitude
169.18031°
Altitude
746.345 km
Speed
7.486 km/s
True Right ascension
13h 45m 03s
True Declination
6° 38' 03"
Sunlit
Object was in daylight at epoch
Visualization orbit readout
Latitude
Unknown
Longitude
Unknown
Altitude
Unknown
Speed
Unknown
Apparent Right ascension
Unknown
Apparent Declination
Unknown
Sunlit
N/A
Visualization observer readout
Local Sidereal Time
13:04:04
Azimuth
Unknown
Elevation
Unknown
Doppler factor
Unknown
Orbital elements
Apogee altitude
757.584 km
Perigee altitude
739.044 km
Semi-major axis
7,126.451 km
Eccentricity
0.0013
Inclination
86.3409°
RAAN
26.6904°
Arg. of periapsis
136.6945°
True anomaly
36.53978°
Mean anomaly
36.4511°
Eccentric anomaly
36.49543°
Mean motion
3.60772 °/min
Orbital period
99.79 mins
BSTAR
0.0002583
Loading maneuver chart data...
Computing Atmospheric mass density...
Loading historical data...
Loading historical data...
Loading historical data...
Loading historical data...
Loading historical data...
Loading historical data...
Loading historical data...

Documentation

Showing up to 5 results
|